Time,TemperatureF,DewpointF,PressureIn,WindDirection,WindDirectionDegrees,WindSpeedMPH,WindSpeedGustMPH,Humidity,HourlyPrecipIn,Conditions,Clouds,dailyrainin,SoftwareType,DateUTC
2013-08-09 00:00:00,63.5,52.7,29.87,NW,325,4.0,4.0,68,0.00,,,0.00,Wunderground v.1.15,2013-08-09 07:00:00,
2013-08-09 00:05:00,63.3,52.6,29.87,East,83,3.0,4.0,68,0.00,,,0.00,Wunderground v.1.15,2013-08-09 07:05:00,
2013-08-09 00:10:00,63.2,52.5,29.88,WNW,302,2.0,2.0,68,0.00,,,0.00,Wunderground v.1.15,2013-08-09 07:10:00,
2013-08-09 00:15:00,63.1,52.8,29.88,NW,311,2.0,2.0,69,0.00,,,0.00,Wunderground v.1.15,2013-08-09 07:15:00,
2013-08-09 00:25:00,62.9,52.6,29.88,NNE,17,3.0,3.0,69,0.00,,,0.00,Wunderground v.1.15,2013-08-09 07:25:00,
2013-08-09 00:30:00,62.9,52.6,29.88,NNW,327,3.0,3.0,69,0.00,,,0.00,Wunderground v.1.15,2013-08-09 07:30:00,
2013-08-09 00:35:00,62.8,52.5,29.88,West,273,3.0,3.0,69,0.00,,,0.00,Wunderground v.1.15,2013-08-09 07:35:00,
2013-08-09 00:40:00,62.6,52.3,29.88,NNE,21,2.0,2.0,69,0.00,,,0.00,Wunderground v.1.15,2013-08-09 07:40:00,
2013-08-09 00:45:00,62.5,52.6,29.89,WNW,298,2.0,2.0,70,0.00,,,0.00,Wunderground v.1.15,2013-08-09 07:45:00,
2013-08-09 00:50:00,62.3,52.4,29.89,WNW,299,1.0,1.0,70,0.00,,,0.00,Wunderground v.1.15,2013-08-09 07:50:00,
2013-08-09 00:55:00,62.1,52.2,29.89,WNW,299,1.0,1.0,70,0.00,,,0.00,Wunderground v.1.15,2013-08-09 07:55:00,
2013-08-09 01:00:00,62.0,52.5,29.89,WNW,301,1.0,1.0,71,0.00,,,0.00,Wunderground v.1.15,2013-08-09 08:00:00,
2013-08-09 01:10:00,61.8,52.3,29.89,WNW,301,1.0,1.0,71,0.00,,,0.00,Wunderground v.1.15,2013-08-09 08:10:00,
2013-08-09 01:15:00,61.6,52.5,29.89,West,281,1.0,1.0,72,0.00,,,0.00,Wunderground v.1.15,2013-08-09 08:15:00,
2013-08-09 01:20:00,61.4,52.3,29.89,WNW,300,2.0,2.0,72,0.00,,,0.00,Wunderground v.1.15,2013-08-09 08:20:00,
2013-08-09 01:25:00,61.3,52.6,29.89,West,269,3.0,3.0,73,0.00,,,0.00,Wunderground v.1.15,2013-08-09 08:25:00,
2013-08-09 01:30:00,61.2,52.5,29.88,WNW,299,4.0,5.0,73,0.00,,,0.00,Wunderground v.1.15,2013-08-09 08:30:00,
2013-08-09 01:35:00,61.2,52.5,29.88,WNW,302,4.0,5.0,73,0.00,,,0.00,Wunderground v.1.15,2013-08-09 08:35:00,
2013-08-09 01:40:00,61.1,52.4,29.88,NW,311,4.0,5.0,73,0.00,,,0.00,Wunderground v.1.15,2013-08-09 08:40:00,
2013-08-09 01:50:00,60.9,52.6,29.88,NW,304,5.0,6.0,74,0.00,,,0.00,Wunderground v.1.15,2013-08-09 08:50:00,
2013-08-09 01:55:00,60.8,52.5,29.88,WNW,298,5.0,7.0,74,0.00,,,0.00,Wunderground v.1.15,2013-08-09 08:55:00,
2013-08-09 02:00:00,60.7,52.4,29.88,NW,317,5.0,5.0,74,0.00,,,0.00,Wunderground v.1.15,2013-08-09 09:00:00,
2013-08-09 02:10:00,60.5,52.5,29.87,NW,315,5.0,6.0,75,0.00,,,0.00,Wunderground v.1.15,2013-08-09 09:10:00,
2013-08-09 02:15:00,60.6,52.6,29.87,NW,326,7.0,7.0,75,0.00,,,0.00,Wunderground v.1.15,2013-08-09 09:15:00,
2013-08-09 02:20:00,60.6,52.6,29.87,WNW,287,6.0,12.0,75,0.00,,,0.00,Wunderground v.1.15,2013-08-09 09:20:00,
2013-08-09 02:25:00,60.6,52.6,29.87,WNW,296,6.0,12.0,75,0.00,,,0.00,Wunderground v.1.15,2013-08-09 09:25:00,
2013-08-09 02:30:00,60.6,52.6,29.87,WNW,298,6.0,6.0,75,0.00,,,0.00,Wunderground v.1.15,2013-08-09 09:30:00,
2013-08-09 02:35:00,60.6,52.6,29.87,WNW,303,5.0,6.0,75,0.00,,,0.00,Wunderground v.1.15,2013-08-09 09:35:00,
2013-08-09 02:40:00,60.5,52.5,29.87,NW,317,5.0,5.0,75,0.00,,,0.00,Wunderground v.1.15,2013-08-09 09:40:00,
2013-08-09 02:50:00,60.2,52.6,29.87,WNW,291,4.0,4.0,76,0.00,,,0.00,Wunderground v.1.15,2013-08-09 09:50:00,
2013-08-09 02:55:00,60.1,52.5,29.87,NW,321,4.0,4.0,76,0.00,,,0.00,Wunderground v.1.15,2013-08-09 09:55:00,
2013-08-09 03:00:00,60.0,52.4,29.87,NW,317,3.0,3.0,76,0.00,,,0.00,Wunderground v.1.15,2013-08-09 10:00:00,
2013-08-09 03:05:00,59.9,52.7,29.87,NW,307,4.0,4.0,77,0.00,,,0.00,Wunderground v.1.15,2013-08-09 10:05:00,
2013-08-09 03:10:00,59.8,52.6,29.87,NE,40,4.0,4.0,77,0.00,,,0.00,Wunderground v.1.15,2013-08-09 10:10:00,
2013-08-09 03:20:00,59.5,52.6,29.87,NW,323,2.0,4.0,78,0.00,,,0.00,Wunderground v.1.15,2013-08-09 10:20:00,
2013-08-09 03:25:00,59.4,52.5,29.87,WNW,302,3.0,4.0,78,0.00,,,0.00,Wunderground v.1.15,2013-08-09 10:25:00,
2013-08-09 03:30:00,59.2,52.3,29.87,WNW,300,4.0,4.0,78,0.00,,,0.00,Wunderground v.1.15,2013-08-09 10:30:00,
2013-08-09 03:35:00,59.0,52.5,29.87,NW,306,3.0,5.0,79,0.00,,,0.00,Wunderground v.1.15,2013-08-09 10:35:00,
2013-08-09 03:40:00,59.0,52.5,29.87,WNW,288,3.0,4.0,79,0.00,,,0.00,Wunderground v.1.15,2013-08-09 10:40:00,
2013-08-09 03:45:00,59.0,52.8,29.87,NW,312,2.0,4.0,80,0.00,,,0.00,Wunderground v.1.15,2013-08-09 10:45:00,
2013-08-09 03:55:00,58.8,52.6,29.87,WNW,297,2.0,2.0,80,0.00,,,0.00,Wunderground v.1.15,2013-08-09 10:55:00,
2013-08-09 04:05:00,58.6,52.8,29.87,WNW,293,2.0,4.0,81,0.00,,,0.00,Wunderground v.1.15,2013-08-09 11:05:00,
2013-08-09 04:10:00,58.5,52.7,29.87,WNW,302,3.0,4.0,81,0.00,,,0.00,Wunderground v.1.15,2013-08-09 11:10:00,
2013-08-09 04:15:00,58.4,52.6,29.87,West,277,2.0,4.0,81,0.00,,,0.00,Wunderground v.1.15,2013-08-09 11:15:00,
2013-08-09 04:20:00,58.3,52.5,29.87,WNW,288,1.0,3.0,81,0.00,,,0.00,Wunderground v.1.15,2013-08-09 11:20:00,
2013-08-09 04:25:00,58.1,52.6,29.87,NNE,32,1.0,3.0,82,0.00,,,0.00,Wunderground v.1.15,2013-08-09 11:25:00,
2013-08-09 04:30:00,58.0,52.5,29.87,NNW,340,2.0,2.0,82,0.00,,,0.00,Wunderground v.1.15,2013-08-09 11:30:00,
2013-08-09 04:40:00,57.9,52.4,29.87,NNW,334,1.0,1.0,82,0.00,,,0.00,Wunderground v.1.15,2013-08-09 11:40:00,
2013-08-09 04:45:00,57.8,52.3,29.87,NNW,334,1.0,1.0,82,0.00,,,0.00,Wunderground v.1.15,2013-08-09 11:45:00,
2013-08-09 04:50:00,57.7,52.6,29.87,NW,304,1.0,1.0,83,0.00,,,0.00,Wunderground v.1.15,2013-08-09 11:50:00,
2013-08-09 04:55:00,57.7,52.6,29.86,WNW,287,2.0,2.0,83,0.00,,,0.00,Wunderground v.1.15,2013-08-09 11:55:00,
2013-08-09 05:00:00,57.6,52.5,29.86,WNW,298,2.0,2.0,83,0.00,,,0.00,Wunderground v.1.15,2013-08-09 12:00:00,
2013-08-09 05:05:00,57.5,52.4,29.86,NW,305,2.0,2.0,83,0.00,,,0.00,Wunderground v.1.15,2013-08-09 12:05:00,
2013-08-09 05:10:00,57.4,52.3,29.86,NNW,345,2.0,2.0,83,0.00,,,0.00,Wunderground v.1.15,2013-08-09 12:10:00,
2013-08-09 05:15:00,57.4,52.6,29.86,NW,315,2.0,2.0,84,0.00,,,0.00,Wunderground v.1.15,2013-08-09 12:15:00,
2013-08-09 05:25:00,57.3,52.5,29.86,NW,325,1.0,2.0,84,0.00,,,0.00,Wunderground v.1.15,2013-08-09 12:25:00,
2013-08-09 05:30:00,57.3,52.5,29.86,WNW,290,1.0,5.0,84,0.00,,,0.00,Wunderground v.1.15,2013-08-09 12:30:00,
2013-08-09 05:35:00,57.3,52.5,29.86,WNW,303,2.0,5.0,84,0.00,,,0.00,Wunderground v.1.15,2013-08-09 12:35:00,
2013-08-09 05:40:00,57.2,52.4,29.86,NNW,342,2.0,2.0,84,0.00,,,0.00,Wunderground v.1.15,2013-08-09 12:40:00,
2013-08-09 05:45:00,57.2,52.7,29.86,NNW,344,2.0,2.0,85,0.00,,,0.00,Wunderground v.1.15,2013-08-09 12:45:00,
2013-08-09 05:50:00,57.2,52.7,29.86,North,5,1.0,1.0,85,0.00,,,0.00,Wunderground v.1.15,2013-08-09 12:50:00,
2013-08-09 05:55:00,57.2,52.7,29.87,NNE,29,1.0,1.0,85,0.00,,,0.00,Wunderground v.1.15,2013-08-09 12:55:00,
2013-08-09 06:00:00,57.2,52.7,29.87,NNW,341,1.0,1.0,85,0.00,,,0.00,Wunderground v.1.15,2013-08-09 13:00:00,
2013-08-09 06:10:00,57.1,52.6,29.88,NW,322,1.0,1.0,85,0.00,,,0.00,Wunderground v.1.15,2013-08-09 13:10:00,
2013-08-09 06:15:00,57.1,53.0,29.89,NW,322,1.0,1.0,86,0.00,,,0.00,Wunderground v.1.15,2013-08-09 13:15:00,
2013-08-09 06:20:00,57.0,52.9,29.89,North,355,1.0,2.0,86,0.00,,,0.00,Wunderground v.1.15,2013-08-09 13:20:00,
2013-08-09 06:25:00,57.0,52.9,29.88,WNW,300,2.0,3.0,86,0.00,,,0.00,Wunderground v.1.15,2013-08-09 13:25:00,
2013-08-09 06:30:00,57.0,52.9,29.88,WNW,292,3.0,4.0,86,0.00,,,0.00,Wunderground v.1.15,2013-08-09 13:30:00,
2013-08-09 06:40:00,57.1,53.0,29.88,NW,311,3.0,3.0,86,0.00,,,0.00,Wunderground v.1.15,2013-08-09 13:40:00,
2013-08-09 06:45:00,57.0,52.9,29.88,WNW,300,3.0,5.0,86,0.00,,,0.00,Wunderground v.1.15,2013-08-09 13:45:00,
2013-08-09 06:50:00,57.0,52.9,29.88,NW,323,2.0,2.0,86,0.00,,,0.00,Wunderground v.1.15,2013-08-09 13:50:00,
2013-08-09 06:55:00,57.0,52.9,29.88,WNW,296,2.0,2.0,86,0.00,,,0.00,Wunderground v.1.15,2013-08-09 13:55:00,
2013-08-09 07:00:00,57.0,53.2,29.88,NNW,343,3.0,3.0,87,0.00,,,0.00,Wunderground v.1.15,2013-08-09 14:00:00,
2013-08-09 07:05:00,57.1,53.3,29.88,NNE,27,2.0,3.0,87,0.00,,,0.00,Wunderground v.1.15,2013-08-09 14:05:00,
2013-08-09 07:15:00,57.3,53.5,29.88,WNW,298,3.0,6.0,87,0.00,,,0.00,Wunderground v.1.15,2013-08-09 14:15:00,
2013-08-09 07:20:00,57.4,53.6,29.88,WNW,290,5.0,5.0,87,0.00,,,0.00,Wunderground v.1.15,2013-08-09 14:20:00,
2013-08-09 07:25:00,57.4,53.6,29.88,NW,321,6.0,6.0,87,0.00,,,0.00,Wunderground v.1.15,2013-08-09 14:25:00,
2013-08-09 07:30:00,57.5,53.7,29.88,WNW,286,7.0,11.0,87,0.00,,,0.00,Wunderground v.1.15,2013-08-09 14:30:00,
2013-08-09 07:40:00,57.7,53.9,29.89,NW,314,6.0,6.0,87,0.00,,,0.00,Wunderground v.1.15,2013-08-09 14:40:00,
2013-08-09 07:45:00,57.8,53.6,29.89,NW,312,5.0,6.0,86,0.00,,,0.00,Wunderground v.1.15,2013-08-09 14:45:00,
2013-08-09 07:55:00,58.1,53.9,29.89,WNW,290,5.0,6.0,86,0.00,,,0.00,Wunderground v.1.15,2013-08-09 14:55:00,
2013-08-09 08:00:00,58.2,54.0,29.89,NW,313,5.0,5.0,86,0.00,,,0.00,Wunderground v.1.15,2013-08-09 15:00:00,
2013-08-09 08:05:00,58.4,54.2,29.88,NNW,329,5.0,7.0,86,0.00,,,0.00,Wunderground v.1.15,2013-08-09 15:05:00,
2013-08-09 08:15:00,58.5,54.3,29.88,NW,317,5.0,6.0,86,0.00,,,0.00,Wunderground v.1.15,2013-08-09 15:15:00,
2013-08-09 08:20:00,58.6,54.1,29.88,NW,304,6.0,6.0,85,0.00,,,0.00,Wunderground v.1.15,2013-08-09 15:20:00,
2013-08-09 08:30:00,59.0,54.5,29.88,NW,312,6.0,6.0,85,0.00,,,0.00,Wunderground v.1.15,2013-08-09 15:30:00,
2013-08-09 08:35:00,59.0,54.5,29.88,WNW,300,5.0,12.0,85,0.00,,,0.00,Wunderground v.1.15,2013-08-09 15:35:00,
2013-08-09 08:40:00,59.2,54.7,29.87,NW,312,5.0,6.0,85,0.00,,,0.00,Wunderground v.1.15,2013-08-09 15:40:00,
2013-08-09 08:50:00,59.6,54.8,29.88,WNW,303,6.0,7.0,84,0.00,,,0.00,Wunderground v.1.15,2013-08-09 15:50:00,
2013-08-09 08:55:00,59.8,55.0,29.88,WNW,291,6.0,11.0,84,0.00,,,0.00,Wunderground v.1.15,2013-08-09 15:55:00,
2013-08-09 09:00:00,60.0,55.2,29.87,NNW,347,6.0,6.0,84,0.00,,,0.00,Wunderground v.1.15,2013-08-09 16:00:00,
2013-08-09 09:05:00,60.1,54.9,29.87,North,5,6.0,6.0,83,0.00,,,0.00,Wunderground v.1.15,2013-08-09 16:05:00,
2013-08-09 09:10:00,60.3,55.1,29.87,North,9,6.0,11.0,83,0.00,,,0.00,Wunderground v.1.15,2013-08-09 16:10:00,
2013-08-09 09:15:00,60.4,55.2,29.87,WNW,300,6.0,11.0,83,0.00,,,0.00,Wunderground v.1.15,2013-08-09 16:15:00,
2013-08-09 09:20:00,60.4,54.9,29.87,NNW,333,7.0,7.0,82,0.00,,,0.00,Wunderground v.1.15,2013-08-09 16:20:00,
2013-08-09 09:25:00,60.6,55.1,29.87,NW,317,7.0,13.0,82,0.00,,,0.00,Wunderground v.1.15,2013-08-09 16:25:00,
2013-08-09 09:30:00,60.7,55.2,29.87,WNW,283,5.0,9.0,82,0.00,,,0.00,Wunderground v.1.15,2013-08-09 16:30:00,
2013-08-09 09:40:00,61.1,55.6,29.86,NW,306,6.0,6.0,82,0.00,,,0.00,Wunderground v.1.15,2013-08-09 16:40:00,
2013-08-09 09:45:00,61.6,55.7,29.87,NW,313,6.0,6.0,81,0.00,,,0.00,Wunderground v.1.15,2013-08-09 16:45:00,
2013-08-09 09:50:00,62.2,56.3,29.87,West,264,5.0,6.0,81,0.00,,,0.00,Wunderground v.1.15,2013-08-09 16:50:00,
2013-08-09 09:55:00,63.1,56.5,29.87,WNW,291,5.0,6.0,79,0.00,,,0.00,Wunderground v.1.15,2013-08-09 16:55:00,
2013-08-09 10:00:00,63.2,56.2,29.86,NW,306,7.0,7.0,78,0.00,,,0.00,Wunderground v.1.15,2013-08-09 17:00:00,
2013-08-09 10:10:00,64.7,57.0,29.87,West,277,4.0,4.0,76,0.00,,,0.00,Wunderground v.1.15,2013-08-09 17:10:00,
2013-08-09 10:15:00,66.0,57.8,29.86,NE,43,5.0,5.0,75,0.00,,,0.00,Wunderground v.1.15,2013-08-09 17:15:00,
2013-08-09 10:20:00,66.5,57.6,29.86,NW,304,3.0,5.0,73,0.00,,,0.00,Wunderground v.1.15,2013-08-09 17:20:00,
2013-08-09 10:30:00,66.6,57.7,29.86,WSW,249,5.0,9.0,73,0.00,,,0.00,Wunderground v.1.15,2013-08-09 17:30:00,
2013-08-09 10:35:00,66.7,57.8,29.86,North,360,5.0,9.0,73,0.00,,,0.00,Wunderground v.1.15,2013-08-09 17:35:00,
2013-08-09 10:40:00,68.4,58.6,29.85,NW,306,4.0,5.0,71,0.00,,,0.00,Wunderground v.1.15,2013-08-09 17:40:00,
2013-08-09 10:50:00,68.0,58.2,29.86,WNW,292,4.0,4.0,71,0.00,,,0.00,Wunderground v.1.15,2013-08-09 17:50:00,
2013-08-09 10:55:00,68.1,58.3,29.86,NE,45,5.0,5.0,71,0.00,,,0.00,Wunderground v.1.15,2013-08-09 17:55:00,
2013-08-09 11:00:00,68.3,58.5,29.86,NE,36,4.0,4.0,71,0.00,,,0.00,Wunderground v.1.15,2013-08-09 18:00:00,
2013-08-09 11:05:00,69.1,58.5,29.85,WNW,302,4.0,6.0,69,0.00,,,0.00,Wunderground v.1.15,2013-08-09 18:05:00,
2013-08-09 11:15:00,70.0,59.0,29.86,NE,38,4.0,4.0,68,0.00,,,0.00,Wunderground v.1.15,2013-08-09 18:15:00,
2013-08-09 11:20:00,70.4,58.9,29.86,West,269,3.0,3.0,67,0.00,,,0.00,Wunderground v.1.15,2013-08-09 18:20:00,
2013-08-09 11:30:00,70.5,59.0,29.85,West,281,3.0,3.0,67,0.00,,,0.00,Wunderground v.1.15,2013-08-09 18:30:00,
2013-08-09 11:40:00,71.1,59.6,29.85,WNW,291,3.0,3.0,67,0.00,,,0.00,Wunderground v.1.15,2013-08-09 18:40:00,
2013-08-09 11:45:00,72.2,60.2,29.85,WNW,286,3.0,4.0,66,0.00,,,0.00,Wunderground v.1.15,2013-08-09 18:45:00,
2013-08-09 11:50:00,71.3,59.4,29.86,NW,311,3.0,6.0,66,0.00,,,0.00,Wunderground v.1.15,2013-08-09 18:50:00,
2013-08-09 11:55:00,70.7,59.6,29.85,NE,39,5.0,6.0,68,0.00,,,0.00,Wunderground v.1.15,2013-08-09 18:55:00,
2013-08-09 12:05:00,71.5,60.0,29.85,West,277,3.0,5.0,67,0.00,,,0.00,Wunderground v.1.15,2013-08-09 19:05:00,
2013-08-09 12:10:00,71.2,59.7,29.85,NNE,22,2.0,2.0,67,0.00,,,0.00,Wunderground v.1.15,2013-08-09 19:10:00,
2013-08-09 12:15:00,71.1,59.6,29.85,NNE,27,2.0,2.0,67,0.00,,,0.00,Wunderground v.1.15,2013-08-09 19:15:00,
2013-08-09 12:20:00,70.9,59.8,29.85,NW,310,2.0,3.0,68,0.00,,,0.00,Wunderground v.1.15,2013-08-09 19:20:00,
2013-08-09 12:25:00,70.7,59.6,29.85,NW,322,2.0,3.0,68,0.00,,,0.00,Wunderground v.1.15,2013-08-09 19:25:00,
2013-08-09 12:30:00,70.4,59.7,29.85,NE,34,2.0,2.0,69,0.00,,,0.00,Wunderground v.1.15,2013-08-09 19:30:00,
2013-08-09 12:40:00,69.9,59.7,29.85,NNE,28,1.0,1.0,70,0.00,,,0.00,Wunderground v.1.15,2013-08-09 19:40:00,
2013-08-09 12:45:00,69.4,59.6,29.85,NNE,23,1.0,1.0,71,0.00,,,0.00,Wunderground v.1.15,2013-08-09 19:45:00,
2013-08-09 12:50:00,68.8,59.0,29.86,NNE,19,2.0,2.0,71,0.00,,,0.00,Wunderground v.1.15,2013-08-09 19:50:00,
2013-08-09 12:55:00,68.6,59.2,29.86,North,9,2.0,2.0,72,0.00,,,0.00,Wunderground v.1.15,2013-08-09 19:55:00,
2013-08-09 13:00:00,68.3,58.9,29.86,North,9,2.0,2.0,72,0.00,,,0.00,Wunderground v.1.15,2013-08-09 20:00:00,
2013-08-09 13:05:00,68.3,58.9,29.86,North,5,2.0,2.0,72,0.00,,,0.00,Wunderground v.1.15,2013-08-09 20:05:00,
2013-08-09 13:10:00,68.2,58.8,29.86,NNW,348,1.0,1.0,72,0.00,,,0.00,Wunderground v.1.15,2013-08-09 20:10:00,
2013-08-09 13:20:00,67.7,58.7,29.86,NNW,331,2.0,2.0,73,0.00,,,0.00,Wunderground v.1.15,2013-08-09 20:20:00,
2013-08-09 13:25:00,67.8,59.2,29.86,NNW,330,1.0,2.0,74,0.00,,,0.00,Wunderground v.1.15,2013-08-09 20:25:00,
2013-08-09 13:30:00,67.6,59.0,29.86,NNW,331,1.0,4.0,74,0.00,,,0.00,Wunderground v.1.15,2013-08-09 20:30:00,
2013-08-09 13:35:00,67.4,59.2,29.86,NNW,331,2.0,4.0,75,0.00,,,0.00,Wunderground v.1.15,2013-08-09 20:35:00,
2013-08-09 13:40:00,67.3,59.1,29.86,NNW,330,2.0,3.0,75,0.00,,,0.00,Wunderground v.1.15,2013-08-09 20:40:00,
2013-08-09 13:45:00,67.0,58.8,29.86,NW,309,2.0,5.0,75,0.00,,,0.00,Wunderground v.1.15,2013-08-09 20:45:00,
2013-08-09 13:55:00,66.8,59.4,29.86,NW,307,2.0,3.0,77,0.00,,,0.00,Wunderground v.1.15,2013-08-09 20:55:00,
2013-08-09 14:00:00,66.7,59.3,29.86,NW,307,2.0,2.0,77,0.00,,,0.00,Wunderground v.1.15,2013-08-09 21:00:00,
2013-08-09 14:10:00,66.6,59.2,29.86,NW,308,2.0,5.0,77,0.00,,,0.00,Wunderground v.1.15,2013-08-09 21:10:00,
2013-08-09 14:15:00,66.6,59.2,29.85,NW,309,2.0,5.0,77,0.00,,,0.00,Wunderground v.1.15,2013-08-09 21:15:00,
2013-08-09 14:25:00,67.2,59.4,29.85,NW,309,1.0,3.0,76,0.00,,,0.00,Wunderground v.1.15,2013-08-09 21:25:00,
2013-08-09 14:30:00,67.5,59.7,29.85,NW,309,1.0,1.0,76,0.00,,,0.00,Wunderground v.1.15,2013-08-09 21:30:00,
2013-08-09 14:35:00,67.9,60.1,29.85,NW,309,1.0,1.0,76,0.00,,,0.00,Wunderground v.1.15,2013-08-09 21:35:00,
2013-08-09 14:45:00,68.5,60.3,29.84,NW,309,1.0,3.0,75,0.00,,,0.00,Wunderground v.1.15,2013-08-09 21:45:00,
2013-08-09 14:50:00,69.0,60.4,29.84,NW,309,1.0,1.0,74,0.00,,,0.00,Wunderground v.1.15,2013-08-09 21:50:00,
2013-08-09 14:55:00,69.5,60.5,29.84,NW,306,1.0,3.0,73,0.00,,,0.00,Wunderground v.1.15,2013-08-09 21:55:00,
2013-08-09 15:00:00,69.2,60.6,29.84,NW,306,1.0,4.0,74,0.00,,,0.00,Wunderground v.1.15,2013-08-09 22:00:00,
2013-08-09 15:10:00,70.0,60.6,29.84,West,267,2.0,3.0,72,0.00,,,0.00,Wunderground v.1.15,2013-08-09 22:10:00,
2013-08-09 15:15:00,70.4,60.9,29.83,WNW,295,3.0,6.0,72,0.00,,,0.00,Wunderground v.1.15,2013-08-09 22:15:00,
2013-08-09 15:20:00,70.6,61.1,29.83,West,276,6.0,6.0,72,0.00,,,0.00,Wunderground v.1.15,2013-08-09 22:20:00,
2013-08-09 15:25:00,71.7,61.4,29.84,NW,317,5.0,6.0,70,0.00,,,0.00,Wunderground v.1.15,2013-08-09 22:25:00,
2013-08-09 15:30:00,72.1,61.4,29.83,NNE,18,3.0,9.0,69,0.00,,,0.00,Wunderground v.1.15,2013-08-09 22:30:00,
2013-08-09 15:35:00,72.7,61.5,29.83,North,360,3.0,9.0,68,0.00,,,0.00,Wunderground v.1.15,2013-08-09 22:35:00,
2013-08-09 15:45:00,73.3,62.1,29.82,WNW,301,3.0,3.0,68,0.00,,,0.00,Wunderground v.1.15,2013-08-09 22:45:00,
2013-08-09 15:50:00,73.4,62.2,29.82,ENE,59,5.0,5.0,68,0.00,,,0.00,Wunderground v.1.15,2013-08-09 22:50:00,
2013-08-09 15:55:00,73.0,61.8,29.82,North,5,5.0,5.0,68,0.00,,,0.00,Wunderground v.1.15,2013-08-09 22:55:00,
2013-08-09 16:00:00,73.4,61.8,29.81,NE,35,4.0,5.0,67,0.00,,,0.00,Wunderground v.1.15,2013-08-09 23:00:00,
2013-08-09 16:05:00,73.3,62.1,29.81,NNE,32,4.0,5.0,68,0.00,,,0.00,Wunderground v.1.15,2013-08-09 23:05:00,
2013-08-09 16:10:00,74.0,61.9,29.81,WNW,298,4.0,7.0,66,0.00,,,0.00,Wunderground v.1.15,2013-08-09 23:10:00,
2013-08-09 16:15:00,74.5,62.0,29.81,West,263,4.0,7.0,65,0.00,,,0.00,Wunderground v.1.15,2013-08-09 23:15:00,
2013-08-09 16:25:00,75.6,62.1,29.80,NE,50,4.0,8.0,63,0.00,,,0.00,Wunderground v.1.15,2013-08-09 23:25:00,
2013-08-09 16:30:00,75.7,61.3,29.80,NW,313,4.0,4.0,61,0.00,,,0.00,Wunderground v.1.15,2013-08-09 23:30:00,
2013-08-09 16:35:00,75.7,61.3,29.80,NW,321,4.0,4.0,61,0.00,,,0.00,Wunderground v.1.15,2013-08-09 23:35:00,
2013-08-09 16:40:00,75.7,61.3,29.80,WNW,299,3.0,6.0,61,0.00,,,0.00,Wunderground v.1.15,2013-08-09 23:40:00,
2013-08-09 16:45:00,75.7,60.8,29.80,NNE,28,4.0,6.0,60,0.00,,,0.00,Wunderground v.1.15,2013-08-09 23:45:00,
2013-08-09 16:50:00,76.6,61.2,29.80,NW,307,3.0,3.0,59,0.00,,,0.00,Wunderground v.1.15,2013-08-09 23:50:00,
2013-08-09 17:00:00,75.8,60.4,29.80,NW,316,5.0,10.0,59,0.00,,,0.00,Wunderground v.1.15,2013-08-10 00:00:00,
2013-08-09 17:05:00,75.2,60.4,29.80,WNW,286,6.0,10.0,60,0.00,,,0.00,Wunderground v.1.15,2013-08-10 00:05:00,
2013-08-09 17:10:00,75.8,60.4,29.80,NNE,24,5.0,5.0,59,0.00,,,0.00,Wunderground v.1.15,2013-08-10 00:10:00,
2013-08-09 17:15:00,76.1,60.7,29.80,NE,50,3.0,5.0,59,0.00,,,0.00,Wunderground v.1.15,2013-08-10 00:15:00,
2013-08-09 17:20:00,76.1,61.2,29.81,NE,45,3.0,3.0,60,0.00,,,0.00,Wunderground v.1.15,2013-08-10 00:20:00,
2013-08-09 17:25:00,76.5,61.1,29.80,NE,40,3.0,3.0,59,0.00,,,0.00,Wunderground v.1.15,2013-08-10 00:25:00,
2013-08-09 17:30:00,76.9,61.5,29.80,WNW,284,3.0,6.0,59,0.00,,,0.00,Wunderground v.1.15,2013-08-10 00:30:00,
2013-08-09 17:40:00,76.6,61.2,29.80,NW,314,4.0,4.0,59,0.00,,,0.00,Wunderground v.1.15,2013-08-10 00:40:00,
2013-08-09 17:45:00,76.6,60.7,29.79,WNW,301,4.0,4.0,58,0.00,,,0.00,Wunderground v.1.15,2013-08-10 00:45:00,
2013-08-09 17:50:00,76.6,61.2,29.79,NNW,338,5.0,5.0,59,0.00,,,0.00,Wunderground v.1.15,2013-08-10 00:50:00,
2013-08-09 17:55:00,76.5,61.1,29.79,NNE,33,4.0,5.0,59,0.00,,,0.00,Wunderground v.1.15,2013-08-10 00:55:00,
2013-08-09 18:00:00,76.1,61.2,29.79,NE,42,4.0,4.0,60,0.00,,,0.00,Wunderground v.1.15,2013-08-10 01:00:00,
2013-08-09 18:05:00,75.9,61.5,29.79,West,274,4.0,11.0,61,0.00,,,0.00,Wunderground v.1.15,2013-08-10 01:05:00,
2013-08-09 18:10:00,76.1,61.7,29.78,NE,55,4.0,5.0,61,0.00,,,0.00,Wunderground v.1.15,2013-08-10 01:10:00,
2013-08-09 18:20:00,76.1,60.7,29.79,WNW,285,5.0,5.0,59,0.00,,,0.00,Wunderground v.1.15,2013-08-10 01:20:00,
2013-08-09 18:25:00,76.1,60.7,29.79,NW,313,5.0,13.0,59,0.00,,,0.00,Wunderground v.1.15,2013-08-10 01:25:00,
2013-08-09 18:30:00,76.1,60.7,29.79,NW,310,5.0,5.0,59,0.00,,,0.00,Wunderground v.1.15,2013-08-10 01:30:00,
2013-08-09 18:35:00,76.2,60.8,29.80,WNW,292,5.0,5.0,59,0.00,,,0.00,Wunderground v.1.15,2013-08-10 01:35:00,
2013-08-09 18:40:00,76.4,61.0,29.80,WNW,295,4.0,5.0,59,0.00,,,0.00,Wunderground v.1.15,2013-08-10 01:40:00,
2013-08-09 18:50:00,76.5,61.6,29.80,WNW,295,4.0,4.0,60,0.00,,,0.00,Wunderground v.1.15,2013-08-10 01:50:00,
2013-08-09 18:55:00,76.7,61.3,29.80,WNW,296,2.0,4.0,59,0.00,,,0.00,Wunderground v.1.15,2013-08-10 01:55:00,
2013-08-09 19:00:00,76.8,61.4,29.80,NW,309,2.0,2.0,59,0.00,,,0.00,Wunderground v.1.15,2013-08-10 02:00:00,
2013-08-09 19:05:00,76.3,61.4,29.81,WNW,286,2.0,3.0,60,0.00,,,0.00,Wunderground v.1.15,2013-08-10 02:05:00,
2013-08-09 19:15:00,75.3,60.9,29.82,NE,34,3.0,3.0,61,0.00,,,0.00,Wunderground v.1.15,2013-08-10 02:15:00,
2013-08-09 19:20:00,74.8,60.9,29.83,NE,34,2.0,2.0,62,0.00,,,0.00,Wunderground v.1.15,2013-08-10 02:20:00,
2013-08-09 19:25:00,74.7,60.8,29.83,NNE,30,1.0,2.0,62,0.00,,,0.00,Wunderground v.1.15,2013-08-10 02:25:00,
2013-08-09 19:30:00,74.4,60.5,29.83,NW,311,2.0,2.0,62,0.00,,,0.00,Wunderground v.1.15,2013-08-10 02:30:00,
2013-08-09 19:35:00,74.1,60.7,29.82,NW,309,2.0,2.0,63,0.00,,,0.00,Wunderground v.1.15,2013-08-10 02:35:00,
2013-08-09 19:45:00,73.5,60.6,29.82,NW,315,1.0,2.0,64,0.00,,,0.00,Wunderground v.1.15,2013-08-10 02:45:00,
2013-08-09 19:50:00,73.3,60.4,29.83,NW,315,1.0,1.0,64,0.00,,,0.00,Wunderground v.1.15,2013-08-10 02:50:00,
2013-08-09 19:55:00,73.1,60.6,29.83,NW,317,0.0,1.0,65,0.00,,,0.00,Wunderground v.1.15,2013-08-10 02:55:00,
2013-08-09 20:05:00,72.9,60.4,29.83,NW,317,0.0,2.0,65,0.00,,,0.00,Wunderground v.1.15,2013-08-10 03:05:00,
2013-08-09 20:10:00,72.4,60.4,29.83,NW,317,0.0,0.0,66,0.00,,,0.00,Wunderground v.1.15,2013-08-10 03:10:00,
2013-08-09 20:15:00,72.0,60.4,29.83,NW,317,0.0,0.0,67,0.00,,,0.00,Wunderground v.1.15,2013-08-10 03:15:00,
2013-08-09 20:20:00,71.9,60.8,29.83,NW,317,0.0,0.0,68,0.00,,,0.00,Wunderground v.1.15,2013-08-10 03:20:00,
2013-08-09 20:25:00,71.7,60.6,29.83,NW,317,0.0,0.0,68,0.00,,,0.00,Wunderground v.1.15,2013-08-10 03:25:00,
2013-08-09 20:30:00,71.5,60.4,29.83,NW,317,0.0,0.0,68,0.00,,,0.00,Wunderground v.1.15,2013-08-10 03:30:00,
2013-08-09 20:35:00,71.1,60.4,29.83,NW,317,1.0,1.0,69,0.00,,,0.00,Wunderground v.1.15,2013-08-10 03:35:00,
2013-08-09 20:45:00,70.5,60.6,29.84,NW,317,1.0,1.0,71,0.00,,,0.00,Wunderground v.1.15,2013-08-10 03:45:00,
2013-08-09 20:50:00,70.2,60.4,29.84,NW,317,0.0,2.0,71,0.00,,,0.00,Wunderground v.1.15,2013-08-10 03:50:00,
2013-08-09 20:55:00,69.8,60.4,29.85,NW,317,0.0,2.0,72,0.00,,,0.00,Wunderground v.1.15,2013-08-10 03:55:00,
2013-08-09 21:00:00,69.6,60.6,29.86,NW,317,1.0,1.0,73,0.00,,,0.00,Wunderground v.1.15,2013-08-10 04:00:00,
2013-08-09 21:05:00,69.2,60.2,29.85,NW,317,1.0,1.0,73,0.00,,,0.00,Wunderground v.1.15,2013-08-10 04:05:00,
2013-08-09 21:10:00,68.8,60.2,29.86,NW,317,1.0,1.0,74,0.00,,,0.00,Wunderground v.1.15,2013-08-10 04:10:00,
2013-08-09 21:20:00,68.3,60.1,29.86,NW,317,0.0,0.0,75,0.00,,,0.00,Wunderground v.1.15,2013-08-10 04:20:00,
2013-08-09 21:25:00,68.0,59.8,29.86,NW,317,1.0,2.0,75,0.00,,,0.00,Wunderground v.1.15,2013-08-10 04:25:00,
2013-08-09 21:30:00,67.8,60.0,29.85,NW,315,1.0,3.0,76,0.00,,,0.00,Wunderground v.1.15,2013-08-10 04:30:00,
2013-08-09 21:35:00,67.4,59.6,29.85,NW,311,2.0,5.0,76,0.00,,,0.00,Wunderground v.1.15,2013-08-10 04:35:00,
2013-08-09 21:40:00,67.1,59.6,29.85,NW,306,3.0,3.0,77,0.00,,,0.00,Wunderground v.1.15,2013-08-10 04:40:00,
2013-08-09 21:50:00,66.5,59.1,29.85,NW,306,2.0,2.0,77,0.00,,,0.00,Wunderground v.1.15,2013-08-10 04:50:00,
2013-08-09 21:55:00,66.4,59.3,29.85,NNW,331,2.0,2.0,78,0.00,,,0.00,Wunderground v.1.15,2013-08-10 04:55:00,
2013-08-09 22:00:00,66.2,59.1,29.86,North,360,2.0,3.0,78,0.00,,,0.00,Wunderground v.1.15,2013-08-10 05:00:00,
2013-08-09 22:05:00,66.0,58.9,29.86,NNE,18,2.0,3.0,78,0.00,,,0.00,Wunderground v.1.15,2013-08-10 05:05:00,
2013-08-09 22:15:00,65.7,59.0,29.87,NNE,15,2.0,5.0,79,0.00,,,0.00,Wunderground v.1.15,2013-08-10 05:15:00,
2013-08-09 22:20:00,65.7,59.0,29.87,NNW,343,2.0,2.0,79,0.00,,,0.00,Wunderground v.1.15,2013-08-10 05:20:00,
2013-08-09 22:25:00,65.5,58.8,29.87,NNW,345,2.0,2.0,79,0.00,,,0.00,Wunderground v.1.15,2013-08-10 05:25:00,
2013-08-09 22:30:00,65.3,58.6,29.87,WNW,301,3.0,3.0,79,0.00,,,0.00,Wunderground v.1.15,2013-08-10 05:30:00,
2013-08-09 22:35:00,65.1,58.8,29.87,WNW,296,3.0,3.0,80,0.00,,,0.00,Wunderground v.1.15,2013-08-10 05:35:00,
2013-08-09 22:40:00,65.0,58.7,29.87,WNW,286,3.0,5.0,80,0.00,,,0.00,Wunderground v.1.15,2013-08-10 05:40:00,
2013-08-09 22:45:00,64.8,58.5,29.86,NW,319,4.0,5.0,80,0.00,,,0.00,Wunderground v.1.15,2013-08-10 05:45:00,
2013-08-09 22:50:00,64.7,58.7,29.86,WNW,292,5.0,5.0,81,0.00,,,0.00,Wunderground v.1.15,2013-08-10 05:50:00,
2013-08-09 22:55:00,64.7,58.7,29.86,West,279,5.0,5.0,81,0.00,,,0.00,Wunderground v.1.15,2013-08-10 05:55:00,
2013-08-09 23:00:00,64.6,58.3,29.86,WNW,299,5.0,5.0,80,0.00,,,0.00,Wunderground v.1.15,2013-08-10 06:00:00,
2013-08-09 23:10:00,64.3,58.3,29.85,NW,313,5.0,5.0,81,0.00,,,0.00,Wunderground v.1.15,2013-08-10 06:10:00,
2013-08-09 23:15:00,64.1,58.1,29.85,WNW,300,5.0,6.0,81,0.00,,,0.00,Wunderground v.1.15,2013-08-10 06:15:00,
2013-08-09 23:20:00,63.8,58.2,29.85,NW,308,5.0,5.0,82,0.00,,,0.00,Wunderground v.1.15,2013-08-10 06:20:00,
2013-08-09 23:25:00,63.7,58.1,29.85,WNW,296,4.0,6.0,82,0.00,,,0.00,Wunderground v.1.15,2013-08-10 06:25:00,
2013-08-09 23:30:00,63.5,58.2,29.85,WNW,296,4.0,4.0,83,0.00,,,0.00,Wunderground v.1.15,2013-08-10 06:30:00,
2013-08-09 23:35:00,63.4,58.1,29.85,WNW,296,5.0,5.0,83,0.00,,,0.00,Wunderground v.1.15,2013-08-10 06:35:00,
2013-08-09 23:40:00,63.3,58.0,29.84,WNW,296,4.0,4.0,83,0.00,,,0.00,Wunderground v.1.15,2013-08-10 06:40:00,
2013-08-09 23:50:00,63.0,58.1,29.83,NW,315,4.0,5.0,84,0.00,,,0.00,Wunderground v.1.15,2013-08-10 06:50:00,
2013-08-09 23:55:00,62.9,58.0,29.83,NW,309,5.0,5.0,84,0.00,,,0.00,Wunderground v.1.15,2013-08-10 06:55:00,